Berlin, NH

9:30 PM EDT on September 25, 2017 (GMT -0400)
Berlin Municipal

Weather History for KBML - February, 2014

Change the Weather History Date:

Wednesday, February 26, 2014

  Actual Average Record
Temperature  
Mean Temperature 4 °F -  
Max Temperature 19 °F 30 °F 48 °F (2002)
Min Temperature -11 °F 4 °F -26 °F (2003)
Degree Days  
Heating Degree Days 61    
Moisture  
Dew Point 0 °F    
Average Humidity 67    
Maximum Humidity 87    
Minimum Humidity 39    
Precipitation  
Precipitation 0.01 in - - ()
Sea Level Pressure  
Sea Level Pressure 29.73 in    
Wind  
Wind Speed 4 mph (WSW)    
Max Wind Speed 12 mph    
Max Gust Speed 25 mph    
Visibility 6 miles    
Events Snow    
Averages and records for this station are not official NWS values.
T = Trace of Precipitation, MM = Missing Value Source: NWS Daily Summary

Daily Weather History Graph

Daily Weather History Graph

Search for Another Location

Airport or City:

Trip Planner

Search our weather history database for the weather conditions in past years. The results will help you decide how hot, cold, wet, or windy it might be!

Date:

Astronomy

Feb. 26, 2014 Rise Set
Actual Time 6:27 AM EST 5:28 PM EST
Civil Twilight 5:57 AM EST 5:57 PM EST
Nautical Twilight 5:24 AM EST 6:31 PM EST
Astronomical Twilight 4:50 AM EST 7:05 PM EST
Moon 4:16 AM EST 2:34 PM EST
Length of Visible Light 11h 59m
Length of Day
11h 01m
Waning Crescent, 10% of the Moon is Illuminated
Feb 26
Waning Crescent
Mar 1
New
Mar 8
First Quarter
Mar 16
Full
Mar 23
Last Quarter

Hourly Weather History & Observations

Time (EST) Temp. Windchill Dew Point Humidity Pressure Visibility Wind Dir Wind Speed Gust Speed Precip Events Conditions
12:26 AM -4.0 °F - -9.0 °F 79% 29.81 in 10.0 mi Calm Calm - N/A   Scattered Clouds
12:52 AM -5.1 °F - -9.9 °F 80% 29.89 in 10.0 mi Calm Calm - N/A   Clear
1:52 AM -8.0 °F - -13.0 °F 79% 29.87 in 10.0 mi Calm Calm - N/A   Clear
2:52 AM -9.0 °F - -14.1 °F 79% 29.85 in 10.0 mi Calm Calm - N/A   Clear
3:52 AM -9.9 °F - -16.1 °F 74% 29.85 in 10.0 mi Calm Calm - N/A   Clear
4:52 AM -11.9 °F - -18.0 °F 74% 29.85 in 10.0 mi Calm Calm - N/A   Clear
5:52 AM -11.0 °F - -18.0 °F 71% 29.84 in 10.0 mi Calm Calm - N/A   Partly Cloudy
6:52 AM -11.0 °F - -17.0 °F 75% 29.83 in 10.0 mi Calm Calm - N/A   Overcast
7:52 AM -6.0 °F - -9.0 °F 87% 29.81 in 7.0 mi Calm Calm - N/A   Overcast
8:52 AM 1.0 °F - -2.9 °F 83% 29.79 in 10.0 mi Calm Calm - N/A   Overcast
9:52 AM 10.9 °F - 1.0 °F 64% 29.76 in 10.0 mi Calm Calm - N/A   Mostly Cloudy
10:52 AM 18.0 °F 5.4 °F 7.0 °F 62% 29.74 in 8.0 mi SW 11.5 mph 17.3 mph 0.00 in   Overcast
11:17 AM 18.0 °F 6.9 °F 7.0 °F 62% 29.66 in 1.8 mi WSW 9.2 mph - 0.00 in Snow Light Snow
11:20 AM 17.1 °F 5.0 °F 8.1 °F 68% 29.66 in 1.2 mi WSW 10.4 mph 17.3 mph 0.00 in Snow Light Snow
11:29 AM 18.0 °F 7.7 °F 8.1 °F 65% 29.65 in 2.0 mi WSW 8.1 mph 18.4 mph 0.00 in Snow Light Snow
11:37 AM 19.0 °F 7.5 °F 7.0 °F 59% 29.65 in 5.0 mi WSW 10.4 mph - 0.00 in Snow Light Snow
11:45 AM 18.0 °F 7.7 °F 7.0 °F 62% 29.65 in 1.8 mi SW 8.1 mph 19.6 mph 0.00 in Snow Light Snow
11:52 AM 18.0 °F 12.7 °F 9.0 °F 68% 29.73 in 1.5 mi Variable 3.5 mph - 0.00 in Snow Light Snow
12:03 PM 18.0 °F 8.7 °F 6.1 °F 60% 29.64 in 3.0 mi Variable 6.9 mph 16.1 mph 0.00 in Snow Light Snow
12:15 PM 19.0 °F 7.5 °F 3.0 °F 50% 29.64 in 8.0 mi WSW 10.4 mph - 0.00 in   Overcast
12:43 PM 17.1 °F 5.8 °F 3.9 °F 56% 29.64 in 1.5 mi WSW 9.2 mph 25.3 mph 0.00 in Snow Light Snow
12:46 PM 15.8 °F 3.4 °F 6.8 °F 68% 29.63 in 0.8 mi SW 10.4 mph 23.0 mph 0.00 in Snow Light Snow
12:52 PM 16.0 °F 2.9 °F 8.1 °F 71% 29.72 in 0.8 mi SW 11.5 mph 21.9 mph 0.00 in Snow Light Snow
12:55 PM 16.0 °F 5.3 °F 7.0 °F 68% 29.63 in 1.5 mi SSW 8.1 mph 17.3 mph 0.00 in Snow Light Snow
12:58 PM 16.0 °F 5.3 °F 8.1 °F 71% 29.62 in 3.0 mi SW 8.1 mph - 0.00 in Snow Light Snow
1:22 PM 18.0 °F 6.9 °F 6.1 °F 60% 29.62 in 1.8 mi West 9.2 mph 18.4 mph 0.00 in Snow Light Snow
1:27 PM 18.0 °F 7.7 °F 7.0 °F 62% 29.62 in 1.0 mi West 8.1 mph 17.3 mph 0.00 in Snow Light Snow
1:34 PM 17.1 °F 7.6 °F 10.0 °F 74% 29.63 in 0.5 mi Variable 6.9 mph 17.3 mph 0.00 in Snow Snow
1:39 PM 16.0 °F 5.3 °F 10.0 °F 77% 29.63 in 0.2 mi West 8.1 mph - 0.00 in Snow Heavy Snow
1:52 PM 16.0 °F 8.8 °F 10.0 °F 77% 29.72 in 0.2 mi Variable 4.6 mph - 0.00 in Snow Heavy Snow
2:05 PM 16.0 °F 8.8 °F 9.0 °F 74% 29.63 in 0.8 mi Variable 4.6 mph - 0.01 in Snow Light Snow
2:12 PM 16.0 °F 5.3 °F 8.1 °F 71% 29.63 in 1.0 mi WSW 8.1 mph - 0.01 in Snow Light Snow
2:20 PM 16.0 °F 5.3 °F 9.0 °F 74% 29.63 in 0.8 mi West 8.1 mph - 0.01 in Snow Light Snow
2:48 PM 15.8 °F - 8.6 °F 73% 29.64 in 1.2 mi North - - 0.01 in Snow Light Snow
2:52 PM 16.0 °F 5.3 °F 6.1 °F 65% 29.73 in 1.5 mi West 8.1 mph 18.4 mph 0.01 in Snow Light Snow
2:57 PM 16.0 °F 8.8 °F 6.1 °F 65% 29.64 in 3.0 mi Variable 4.6 mph 18.4 mph 0.00 in Snow Light Snow
3:10 PM 16.0 °F 5.3 °F 5.0 °F 62% 29.64 in 2.5 mi WNW 8.1 mph - 0.00 in Snow Light Snow
3:19 PM 16.0 °F 2.9 °F 1.9 °F 54% 29.65 in 7.0 mi West 11.5 mph 19.6 mph 0.00 in   Overcast
3:52 PM 16.0 °F 3.6 °F -2.0 °F 45% 29.74 in 10.0 mi WNW 10.4 mph 18.4 mph 0.00 in   Mostly Cloudy
4:52 PM 15.1 °F 5.2 °F -5.1 °F 41% 29.76 in 10.0 mi West 6.9 mph - N/A   Mostly Cloudy
5:52 PM 12.0 °F 2.7 °F -8.0 °F 41% 29.80 in 10.0 mi Variable 5.8 mph - N/A   Partly Cloudy
6:52 PM 10.9 °F - -9.9 °F 39% 29.82 in 10.0 mi North - - N/A   Clear
7:52 PM 3.9 °F - -11.0 °F 50% 29.82 in 10.0 mi Calm Calm - N/A   Clear
8:52 PM -6.0 °F - -9.9 °F 83% 29.84 in 10.0 mi Calm Calm - N/A   Clear
9:52 PM -7.1 °F - -11.9 °F 79% 29.84 in 10.0 mi Calm Calm - N/A   Clear
10:52 PM -9.9 °F - -15.0 °F 78% 29.82 in 10.0 mi Calm Calm - N/A   Clear
11:52 PM -11.9 °F - -17.0 °F 78% 29.82 in 10.0 mi Calm Calm - N/A   Clear